Location: Bakhuizen
(52.8696°N, 5.4575°E)
Time: 04:38:01
(UTC+00:00)

Meteor 1-5 Rocket - Pass Details

Date: 11 May 2021
Orbit: 788 x 916 km, 81.2° (Epoch: 14 June)

Event Time Altitude Azimuth Distance (km) Brightness Sun altitude
Rises 20:55:44 0° 345° (NNW) 3,367 8.7 -11.2°
Reaches altitude 10° 20:58:10 10° 344° (NNW) 2,413 7.8 -11.4°
Maximum altitude 21:03:35 73° 261° (W) 841 4.3 -11.9°
Enters shadow 21:08:33 12° 178° (S) 2,240 5.9 -12.3°
